{"data":{"norad_id":60412,"epoch":"2026-05-24T23:55:21.673632Z","epoch_age_seconds":82100,"freshness":"FRESH","line1":"1 60412U 24141Q   26144.99677863  .00000405  00000+0  23125-4 0  9992","line2":"2 60412  53.1620 247.4363 0001098 102.7025 257.4101 15.34387522101211","mean_motion":15.34387522,"eccentricity":0.0001098,"inclination_deg":53.162,"raan_deg":247.4363,"arg_perigee_deg":102.7025,"mean_anomaly_deg":257.4101,"bstar":2.3125e-5,"rev_number":10121,"period_min":93.848521273363,"perigee_km":461.98919937348,"apogee_km":463.49145603464,"semimajor_km":6840.8773277041,"source":"CELESTRAK","updated_at":"2026-05-25T13:38:19.270320Z"}}